FW1622 Weather Reports


time (UTC)temp
C
wind
direction
speed
KPH
gust
KPH
rain 1hr
cm
rain 24hr
cm
rain mn
cm
humidity
%
barometer
mb
20260505070729 18 134 0.0 3.2 0.00 0.00 0.00 75 1013.9
20260505065727 18 188 3.2 4.8 0.00 0.00 0.00 75 1014.6
20260505064720 18 190 1.6 4.8 0.00 0.00 0.00 75 1014.6
20260505063718 18 210 0.0 1.6 0.00 0.00 0.00 75 1014.2
20260505062712 19 183 0.0 6.4 0.00 0.00 0.00 74 1014.6
20260505062208 19 192 0.0 4.8 0.00 0.00 0.00 74 1014.6
20260505060704 19 183 0.0 3.2 0.00 0.00 0.00 73 1014.6
20260505055659 19 185 0.0 3.2 0.00 0.00 0.00 73 1014.6
20260505055153 19 176 0.0 4.8 0.00 0.00 0.00 73 1014.6
20260505053650 19 198 1.6 4.8 0.00 0.00 0.00 72 1014.9
20260505053146 19 175 0.0 6.4 0.00 0.00 0.00 71 1014.6
20260505051641 19 203 0.0 4.8 0.00 0.00 0.00 71 1014.6
20260505050635 19 170 1.6 4.8 0.00 0.00 0.00 70 1014.6
20260505041612 19 191 1.6 6.4 0.00 0.00 0.00 69 1015.3
20260505040606 19 175 0.0 4.8 0.00 0.00 0.00 69 1015.3
20260505035603 19 206 3.2 6.4 0.00 0.00 0.00 69 1015.3
20260505034557 20 191 0.0 4.8 0.00 0.00 0.00 67 1015.3
20260505033555 20 213 0.0 9.7 0.00 0.00 0.00 66 1015.3
20260505032546 20 192 4.8 6.4 0.00 0.00 0.00 65 1014.9
20260505031543 20 263 1.6 4.8 0.00 0.00 0.00 65 1015.3
20260505030540 20 237 1.6 4.8 0.00 0.00 0.00 64 1015.3
20260505025536 20 323 1.6 9.7 0.00 0.00 0.00 64 1015.3
20260505024530 20 198 1.6 6.4 0.00 0.00 0.00 63 1015.3
20260505023528 20 198 8.0 11.3 0.00 0.00 0.00 63 1015.3
20260505022518 20 207 1.6 9.7 0.00 0.00 0.00 63 1015.3
20260505021516 20 192 4.8 11.3 0.00 0.00 0.00 62 1015.3
20260505020510 20 184 9.7 11.3 0.00 0.00 0.00 62 1015.3
20260505015508 20 232 0.0 9.7 0.00 0.00 0.00 61 1014.9
20260505014502 21 199 4.8 9.7 0.00 0.00 0.00 60 1014.9
20260505013500 21 168 4.8 9.7 0.00 0.00 0.00 59 1014.9
20260505012453 21 197 3.2 6.4 0.00 0.00 0.00 59 1014.9
20260505011451 21 198 1.6 3.2 0.00 0.00 0.00 57 1014.9
20260505010444 21 247 0.0 4.8 0.00 0.00 0.00 56 1014.6
20260505005442 21 236 1.6 4.8 0.00 0.00 0.00 55 1014.9
20260505004436 21 184 1.6 6.4 0.00 0.00 0.00 55 1014.9
20260505003433 22 176 3.2 6.4 0.00 0.00 0.00 54 1015.3
20260505002428 22 203 1.6 9.7 0.00 0.00 0.00 53 1015.3
20260505001424 22 184 3.2 6.4 0.00 0.00 0.00 52 1015.3
20260505000415 22 175 4.8 11.3 0.00 0.00 0.00 52 1014.9
20260504235912 22 220 0.0 6.4 0.00 0.00 0.00 51 1014.9
20260504234406 22 31 0.0 11.3 0.00 0.00 0.00 50 1015.3
20260504233905 22 210 3.2 9.7 0.00 0.00 0.00 49 1015.3
20260504232355 23 182 1.6 9.7 0.00 0.00 0.00 49 1015.3
20260504231353 23 181 6.4 9.7 0.00 0.00 0.00 48 1015.3
20260504230344 23 287 1.6 12.9 0.00 0.00 0.00 47 1015.6
20260504225343 23 240 1.6 11.3 0.00 0.00 0.00 46 1015.6
20260504224336 23 218 3.2 11.3 0.00 0.00 0.00 46 1015.3
20260504223331 23 205 4.8 16.1 0.00 0.00 0.00 44 1015.3
20260504222325 23 187 4.8 12.9 0.00 0.00 0.00 45 1015.6
20260504221322 23 176 3.2 14.5 0.00 0.00 0.00 45 1015.9
20260504220315 23 183 1.6 11.3 0.00 0.00 0.00 42 1015.9
20260504215313 23 209 3.2 11.3 0.00 0.00 0.00 43 1015.9
20260504214306 23 177 1.6 14.5 0.00 0.00 0.00 42 1015.9
20260504212257 23 182 1.6 9.7 0.00 0.00 0.00 39 1015.9
20260504211254 23 153 1.6 11.3 0.00 0.00 0.00 39 1015.9
20260504210248 24 148 6.4 16.1 0.00 0.00 0.00 40 1015.6
20260504205245 24 188 1.6 14.5 0.00 0.00 0.00 39 1015.9
20260504204238 24 191 6.4 11.3 0.00 0.00 0.00 38 1016.3
20260504203737 24 24 3.2 11.3 0.00 0.00 0.00 40 1016.6
20260504202228 24 188 6.4 11.3 0.00 0.00 0.00 38 1016.6
20260504201223 24 177 9.7 14.5 0.00 0.00 0.00 39 1016.6
20260504200217 24 205 4.8 14.5 0.00 0.00 0.00 38 1017.0
20260504195715 25 217 0.0 20.9 0.00 0.00 0.00 38 1017.0
20260504194215 24 161 0.0 9.7 0.00 0.00 0.00 39 1017.0
20260504193210 24 188 6.4 16.1 0.00 0.00 0.00 39 1017.3
20260504192204 25 203 3.2 16.1 0.00 0.00 0.00 39 1017.3
20260504191202 25 202 9.7 12.9 0.00 0.00 0.00 39 1017.3
20260504190153 25 183 3.2 11.3 0.00 0.00 0.00 40 1017.6
20260504185149 25 185 6.4 16.1 0.00 0.00 0.00 40 1017.6
20260504184141 24 84 0.0 14.5 0.00 0.00 0.00 41 1017.6
20260504183136 24 191 3.2 12.9 0.00 0.00 0.00 42 1017.6
20260504182638 24 212 4.8 12.9 0.00 0.00 0.00 40 1018.0
20260504181133 24 229 0.0 11.3 0.00 0.00 0.00 43 1018.0
20260504180125 24 202 6.4 12.9 0.00 0.00 0.00 43 1018.0
20260504175123 24 211 6.4 22.5 0.00 0.00 0.00 41 1018.0
20260504174116 23 190 9.7 12.9 0.00 0.00 0.00 42 1018.0
20260504173113 23 184 6.4 12.9 0.00 0.00 0.00 41 1018.3
20260504172106 23 178 6.4 16.1 0.00 0.00 0.00 40 1018.3
20260504171604 24 203 4.8 12.9 0.00 0.00 0.00 39 1018.3
20260504151008 23 177 6.4 12.9 0.00 0.00 0.00 40 1018.6
20260504150503 24 179 4.8 12.9 0.00 0.00 0.00 39 1018.6
20260504140940 21 318 3.2 6.4 0.00 0.00 0.00 55 1019.0
20260504081658 16 316 0.0 3.2 0.00 0.00 0.00 72 1018.0
20260504080655 16 281 0.0 0.0 0.00 0.00 0.00 72 1018.0